Gage, OK

7:58 AM CST on February 25, 2018 (GMT -0600)
Gage

Weather History for KGAG - February, 2013

Change the Weather History Date:

Thursday, February 21, 2013

  Actual Average Record
Temperature  
Mean Temperature 20 °F -  
Max Temperature 32 °F 52 °F 79 °F (1977)
Min Temperature 8 °F 27 °F 2 °F (1978)
Degree Days  
Heating Degree Days 45    
Moisture  
Dew Point 24 °F    
Average Humidity 91    
Maximum Humidity 100    
Minimum Humidity 80    
Precipitation  
Precipitation 0.56 in - - ()
Sea Level Pressure  
Sea Level Pressure 29.75 in    
Wind  
Wind Speed 10 mph (NE)    
Max Wind Speed 21 mph    
Max Gust Speed 25 mph    
Visibility 5 miles    
Events Fog , Rain , Snow    
Averages and records for this station are not official NWS values.
T = Trace of Precipitation, MM = Missing Value Source: NWS Daily Summary

Daily Weather History Graph

Daily Weather History Graph

Search for Another Location

Airport or City:

Trip Planner

Search our weather history database for the weather conditions in past years. The results will help you decide how hot, cold, wet, or windy it might be!

Date:

Astronomy

Feb. 21, 2013 Rise Set
Actual Time 7:19 AM CST 6:26 PM CST
Civil Twilight 6:53 AM CST 6:52 PM CST
Nautical Twilight 6:23 AM CST 7:22 PM CST
Astronomical Twilight 5:53 AM CST 7:52 PM CST
Moon 2:47 PM CST (2/21) 4:20 AM CST (2/21)
Length of Visible Light 11h 59m
Length of Day
11h 07m
Waxing Gibbous, 84% of the Moon is Illuminated
Feb 21
Waxing Gibbous
Feb 25
Full
Mar 4
Last Quarter
Mar 11
New
Mar 19
First Quarter

Hourly Weather History & Observations

Time (CST) Temp. Windchill Dew Point Humidity Pressure Visibility Wind Dir Wind Speed Gust Speed Precip Events Conditions
12:53 AM 32.0 °F 24.2 °F 32.0 °F 100% 29.79 in 9.0 mi East 9.2 mph 16.1 mph 0.00 in   Overcast
1:18 AM 32.0 °F 24.2 °F 30.2 °F 93% 29.77 in 5.0 mi East 9.2 mph - 0.00 in Rain Light Freezing Rain
1:28 AM 32.0 °F 24.8 °F 30.2 °F 93% 29.78 in 4.0 mi East 8.1 mph - 0.01 in Rain Light Freezing Rain
1:36 AM 32.0 °F 24.8 °F 30.2 °F 93% 29.78 in 1.8 mi East 8.1 mph - 0.04 in Snow Light Snow
1:53 AM 32.0 °F 26.4 °F 30.9 °F 96% 29.81 in 1.0 mi East 5.8 mph - 0.09 in Snow Light Snow
2:01 AM 32.0 °F 24.8 °F 30.2 °F 93% 29.76 in 0.5 mi ENE 8.1 mph - 0.03 in Fog , Snow Snow
2:07 AM 30.2 °F 20.8 °F 30.2 °F 100% 29.75 in 0.2 mi ENE 11.5 mph - 0.05 in Fog , Snow Heavy Snow
2:53 AM 30.9 °F 25.2 °F 30.0 °F 96% 29.80 in 0.2 mi East 5.8 mph - 0.24 in Fog , Snow Heavy Snow
3:42 AM 30.2 °F 26.7 °F 30.2 °F 100% 29.74 in 0.5 mi Variable 3.5 mph - 0.12 in Fog , Snow Snow
3:53 AM 30.0 °F 26.5 °F 30.0 °F 100% 29.77 in 1.2 mi East 3.5 mph - 0.12 in Snow Light Snow
4:11 AM 30.2 °F 23.4 °F 30.2 °F 100% 29.72 in 1.2 mi East 6.9 mph - 0.01 in Snow Light Snow
4:43 AM 30.2 °F 21.9 °F 28.4 °F 93% 29.69 in 0.8 mi East 9.2 mph - 0.02 in Snow Light Snow
4:53 AM 30.0 °F 21.7 °F 28.9 °F 96% 29.73 in 0.8 mi East 9.2 mph - 0.02 in Snow Light Snow
5:02 AM 30.2 °F 23.4 °F 28.4 °F 93% 29.69 in 1.2 mi East 6.9 mph - 0.00 in Snow Light Snow
5:08 AM 30.2 °F 21.3 °F 28.4 °F 93% 29.69 in 2.0 mi East 10.4 mph - 0.00 in Snow Light Snow
5:19 AM 30.2 °F 22.6 °F 28.4 °F 93% 29.71 in 4.0 mi East 8.1 mph - 0.00 in Snow Light Snow
5:51 AM 30.2 °F 21.9 °F 28.4 °F 93% 29.68 in 6.0 mi East 9.2 mph - 0.00 in Snow Light Snow
5:53 AM 30.0 °F 21.1 °F 28.0 °F 92% 29.72 in 7.0 mi East 10.4 mph - 0.00 in Snow Light Snow
6:18 AM 30.2 °F 22.6 °F 28.4 °F 93% 29.66 in 4.0 mi ENE 8.1 mph - 0.00 in Snow Light Snow
6:53 AM 30.0 °F 22.4 °F 28.0 °F 92% 29.74 in 6.0 mi ESE 8.1 mph - 0.00 in Snow Light Snow
7:07 AM 30.2 °F 22.6 °F 28.4 °F 93% 29.67 in 1.8 mi East 8.1 mph - 0.01 in Snow Light Snow
7:27 AM 28.4 °F 19.1 °F 28.4 °F 100% 29.66 in 1.2 mi East 10.4 mph - 0.03 in Snow Light Snow
7:49 AM 28.4 °F 19.1 °F 28.4 °F 100% 29.66 in 0.8 mi ESE 10.4 mph 18.4 mph 0.04 in Snow Light Snow
7:53 AM 28.9 °F 19.2 °F 28.0 °F 96% 29.70 in 0.8 mi ESE 11.5 mph - 0.04 in Snow Light Snow
8:02 AM 28.4 °F 18.0 °F 28.4 °F 100% 29.67 in 1.0 mi ESE 12.7 mph - 0.00 in Snow Light Snow
8:22 AM 28.4 °F 18.5 °F 28.4 °F 100% 29.63 in 2.5 mi East 11.5 mph - 0.00 in Snow Light Snow
8:38 AM 28.4 °F 17.0 °F 28.4 °F 100% 29.60 in 4.0 mi East 15.0 mph 20.7 mph 0.00 in Rain Light Freezing Rain
8:53 AM 28.9 °F 17.3 °F 28.0 °F 96% 29.60 in 7.0 mi ENE 16.1 mph 25.3 mph 0.00 in Rain Light Freezing Rain
9:12 AM 28.4 °F 17.5 °F 28.4 °F 100% 29.59 in 6.0 mi East 13.8 mph 20.7 mph N/A   Overcast
9:29 AM 28.4 °F 18.5 °F 28.4 °F 100% 29.68 in 2.0 mi South 11.5 mph 17.3 mph 0.00 in   Overcast
9:44 AM 30.2 °F 23.4 °F 28.4 °F 93% 29.68 in 1.8 mi SSW 6.9 mph - 0.00 in Snow Light Snow
9:53 AM 30.0 °F 24.1 °F 28.0 °F 92% 29.72 in 1.8 mi SW 5.8 mph - 0.00 in Snow Light Snow
10:05 AM 30.2 °F 24.3 °F 28.4 °F 93% 29.68 in 0.5 mi WSW 5.8 mph - 0.01 in Fog , Snow Snow
10:53 AM 30.0 °F 23.2 °F 28.9 °F 96% 29.72 in 0.2 mi NW 6.9 mph - 0.03 in Fog , Snow Snow
11:08 AM 26.6 °F 15.2 °F 24.8 °F 93% 29.70 in 0.2 mi NNW 13.8 mph - 0.00 in Fog , Snow Heavy Snow
11:53 AM 27.0 °F 15.2 °F 24.1 °F 89% 29.74 in 0.2 mi North 15.0 mph - 0.02 in Fog , Snow Snow
12:03 PM 26.6 °F 14.7 °F 24.8 °F 93% 29.69 in 2.0 mi North 15.0 mph - 0.00 in Snow Light Snow
12:06 PM 26.6 °F 14.3 °F 24.8 °F 93% 29.69 in 4.0 mi North 16.1 mph - 0.00 in Snow Light Snow
12:15 PM 26.6 °F 15.2 °F 23.0 °F 86% 29.70 in 9.0 mi North 13.8 mph - 0.00 in Rain Light Freezing Rain
12:53 PM 27.0 °F 15.6 °F 23.0 °F 85% 29.75 in 10.0 mi North 13.8 mph - 0.00 in Rain Light Freezing Rain
1:09 PM 26.6 °F 16.2 °F 21.2 °F 80% 29.70 in 10.0 mi North 11.5 mph - 0.00 in Snow Light Snow
1:19 PM 26.6 °F 16.8 °F 21.2 °F 80% 29.70 in 9.0 mi North 10.4 mph - 0.00 in Snow Light Snow
1:53 PM 26.1 °F 15.6 °F 21.9 °F 84% 29.75 in 9.0 mi NNW 11.5 mph - 0.00 in   Overcast
2:17 PM 26.6 °F 15.7 °F 21.2 °F 80% 29.71 in 10.0 mi NNW 12.7 mph - 0.00 in   Overcast
2:53 PM 25.0 °F 11.7 °F 19.9 °F 81% 29.78 in 8.0 mi NNW 17.3 mph 23.0 mph 0.00 in Rain Light Freezing Rain
3:04 PM 26.6 °F 14.7 °F 21.2 °F 80% 29.74 in 9.0 mi NNW 15.0 mph - 0.00 in Rain Light Freezing Rain
3:24 PM 24.8 °F 11.1 °F 19.4 °F 80% 29.75 in 10.0 mi NW 18.4 mph - 0.00 in   Overcast
3:53 PM 24.1 °F 9.8 °F 19.0 °F 81% 29.83 in 10.0 mi NNW 19.6 mph 25.3 mph 0.00 in   Overcast
4:53 PM 21.0 °F 5.4 °F 16.0 °F 81% 29.87 in 10.0 mi NNW 20.7 mph - N/A   Overcast
5:53 PM 19.0 °F 6.1 °F 14.0 °F 81% 29.91 in 10.0 mi NW 12.7 mph - N/A   Partly Cloudy
6:53 PM 14.0 °F 2.0 °F 10.0 °F 84% 29.94 in 10.0 mi WNW 9.2 mph - N/A   Clear
7:53 PM 10.9 °F -0.8 °F 7.0 °F 84% 29.98 in 10.0 mi WNW 8.1 mph - N/A   Clear
8:53 PM 10.0 °F -3.7 °F 6.1 °F 84% 30.01 in 10.0 mi WSW 10.4 mph - N/A   Clear
9:53 PM 8.1 °F -6.2 °F 5.0 °F 87% 30.04 in 10.0 mi West 10.4 mph - N/A   Clear
10:53 PM 8.1 °F -6.2 °F 5.0 °F 87% 30.04 in 10.0 mi NW 10.4 mph - N/A   Clear
11:53 PM 10.0 °F -4.5 °F 6.1 °F 84% 30.07 in 10.0 mi WNW 11.5 mph - N/A   Clear